Regional Weather Roundup
Issued by NWS Grand Forks, ND

Home | Current Version | Previous Version | Text Only | Print | Product List | Glossary Off
Versions: 1 2 3 4 5 6 7 8 9 10 11 12 13 14 15 16 17 18 19 20 21 22 23 24 25 26 27 28 29 30 31 32 33 34 35 36 37 38 39 40 41 42 43 44 45 46 47 48 49 50

000
ASUS43 KFGF 210210
RWRFGF
PRAIRIE TO PINES  WEATHER ROUNDUP
NATIONAL WEATHER SERVICE EASTERN NORTH DAKOTA/GRAND FORKS ND
800 PM CST TUE FEB 20 2018

 **SATELLITE DATA USED TO AUGMENT SKY COVER AT AUTOMATED STATIONS**
 *****  WEATHER ACROSS EASTERN NORTH DAKOTA  *****

CITY           SKY/WX    TMP DP  RH WIND       PRES   REMARKS
GRAND FORKS    MOCLDY     2  -4  76 SW10      30.20R WCI -14
GRAND FRKS AFB FAIR       3  -5  70 W9        30.19R WCI -12
GRAND FRKS NWS   N/A      4   0  83 W5        30.17R WCI  -5
DEVILS LAKE    FAIR       2  -3  80 SW13      30.14S WCI -15
FARGO          FAIR       5  -2  72 SW12      30.25R WCI -11
WAHPETON ARPT  FAIR      -2  -8  78 W5        30.28S WCI -12
$$

 ***** WEATHER ACROSS CENTRAL AND WESTERN NORTH DAKOTA  *****

CITY           SKY/WX    TMP DP  RH WIND       PRES   REMARKS
BISMARCK       FAIR       2  -5  72 W6        30.24R WCI  -9
MINOT          FAIR       4  -4  69 SW20      30.12R WCI -17
JAMESTOWN      FAIR       4  -3  73 W10       30.19R WCI -11
MINOT AFB      MOCLDY     4  -4  68 W17       30.10R WCI -16
GARRISON         N/A      1  -6  72 W15       30.15R WCI -18
WILLISTON      FAIR      -1  -9  68 SW8       30.17R WCI -15
DICKINSON      FAIR      -6 -12  75 SW15      30.14R WCI -27
HETTINGER      FAIR     -10 -15  78 W8        30.19R WCI -26
$$

 *****  OTHER AIRPORT OBSERVATIONS IN OUR AREA  *****

CITY           SKY/WX    TMP DP  RH WIND       PRES   REMARKS
WALHALLA       FAIR       7   0  72 W3        30.12S
GRAFTON AIRPOR FAIR       0  -4  85 SW9       30.19S WCI -16
VALLEY CITY AR FAIR       1  -4  78 W10       30.22R WCI -14
CANDO          MOCLDY     1  -4  78 W13       30.13R WCI -16
CAVALIER APRT    N/A      5  -2  72 SW6       30.14S WCI  -6
GWINNER          N/A     -4  -9  77 SW7       30.26S WCI -18
SHEYENNE NWR     N/A      2  -4  75 W7        29.95S WCI -11
ROLLA          FAIR       5  -4  66 SW17      30.05R WCI -14
 ***** THE ABOVE OBSERVATIONS ARE NON NWS ARE NOT QUALITY
       CONTROLLED AND MAY MIS-REPORT RAIN FOR SNOW...
$$

  *****  WEATHER ACROSS NORTHERN MINNESOTA  *****

CITY           SKY/WX    TMP DP  RH WIND       PRES   REMARKS
FLAG ISLAND    FAIR       7   0  72 W7        30.09R WCI  -5
WARROAD        FAIR       1  -2  85 SW6       30.12S WCI -10
ROSEAU         FAIR       1  -4  78 SW6       30.13R WCI -10
HALLOCK        FAIR       1  -6  71 SW9       30.15R WCI -14
THF RVR FALLS  FAIR       2  -3  80 SW10      30.18R WCI -14
BAUDETTE       CLOUDY     6  -1  73 W12       30.09R WCI  -9
WASKISH        FAIR       1  -2  85 SW13      30.14R WCI -16
CROOKSTON      FAIR       0  -6  78 SW9       30.22R WCI -16
STEPHEN NDAWN    N/A      3  -2  78 SW7         N/A  WCI  -9
GREENBUSH NDAW   N/A      0  -6  78 SW8         N/A  WCI -15
$$
  *****  WEATHER ACROSS CENTRAL AND WEST MINNESOTA  *****

CITY           SKY/WX    TMP DP  RH WIND       PRES   REMARKS
FOSSTON        FAIR      -8 -11  84 SW7       30.18R WCI -22
BEMIDJI        CLOUDY     4  -1  79 W7        30.14S WCI  -8
PARK RAPIDS    FAIR       2  -4  76 W10       30.16R WCI -14
ELBOW LAKE     FAIR      -1  -5  82 NW6       30.26R WCI -12
WADENA         FAIR       1  -2  85 W9        30.19R WCI -14
DETROIT LAKES  FAIR       5   1  85 W5        30.21R WCI  -4
MOORHEAD       FAIR       1  -4  78 S6        30.26S WCI -10
FERGUS FALLS   FAIR       0  -4  85 W5        30.27S WCI -10
MORRIS MN      FAIR       1  -4  78 W9        30.26S WCI -14
STAPLES        FAIR       1  -4  78 W10       30.19R WCI -14
$$
  *****  WEATHER ELSEWHERE ACROSS MINNESOTA  *****

CITY           SKY/WX    TMP DP  RH WIND       PRES   REMARKS
DULUTH         FAIR      11   3  70 W12       30.06R WCI  -3
INTRNTL FALLS  CLOUDY     6   1  80 W9        30.07S WCI  -8
ELY            MOCLDY     9   3  78 W8        30.04R WCI  -4
CLOQUET        FAIR       9   1  72 W5        30.09R WCI   0
WHEATON        FAIR       1  -6  71 SW5       30.31S WCI  -8
BRAINERD       FAIR       8  -2  63 W14       30.17R WCI  -8
HIBBING        CLOUDY     9   3  77 W8        30.07R WCI  -3
ALEXANDRIA     FAIR       4   0  83 W13       30.21R WCI -13
SAINT CLOUD    FAIR       8   1  73 W13       30.22R WCI  -8
MINNEAPOLIS    FAIR      14   6  70 W13       30.23R WCI   0
$$

  *****  WEATHER ACROSS SOUTH DAKOTA  *****

CITY           SKY/WX    TMP DP  RH WIND       PRES   REMARKS
SIOUX FALLS    FAIR       5  -1  76 NW7       30.32R WCI  -7
BROOKINGS      FAIR       3  -1  83 NW12      30.29R WCI -13
WATERTOWN      FAIR      -1  -5  82 W10       30.26R WCI -17
HURON          FAIR       3  -2  79 W8        30.35R WCI -10
SISSETON         N/A      3  -5  69 W5        30.28R WCI  -6
ABERDEEN       FAIR      -3  -8  79 W9        30.31R WCI -19
MITCHELL       FAIR       5  -1  76 W9        30.38R WCI  -9
PIERRE         FAIR       1  -5  75 W12       30.32R WCI -16
MOBRIDGE       FAIR       2  -7  66 W7        30.25R WCI -11
RAPID CITY     FAIR      -9 -12  87 CALM      30.19R
$$

  *****  SOME WEATHER IN NEARBY STATES *****

CITY           SKY/WX    TMP DP  RH WIND       PRES   REMARKS
GLASGOW MT     FAIR      -6 -13  71 W6        30.16R WCI -19
GREAT FALLS MT FAIR      -2 -11  65 CALM      30.08R
CHEYENNE WY    FAIR       5   0  79 SW8       30.01R WCI  -8
SCOTTSBLUFF NE FAIR       6  -3  66 S3        30.17R
OMAHA NE       MOCLDY    15   8  73 NW14      30.35R WCI   0
DES MOINES IA  FLURRIES  19  12  74 NW14G24   30.29R WCI   6
DAVENPORT IA   FAIR      29  22  75 NW17G26   30.17R WCI  17
CHICAGO IL     LGT RAIN  37  34  89 W7        30.05S
EAU CLAIRE WI  FAIR      17  11  77 W8        30.16R WCI   7
LA CROSSE WI   CLOUDY    22  16  78 NW12      30.19R WCI  10
$$

  *****  SOME NATIONAL WEATHER *****

CITY           SKY/WX    TMP DP  RH WIND       PRES   REMARKS
LA GUARDIA NY  MOCLDY    58  49  72 S3        30.31S
RALEIGH NC     MOCLDY    68  61  78 S6        30.42R
ATLANTA GA     MOCLDY    69  63  81 SE7       30.34S
NEW ORLEANS LA FAIR      75  72  90 SE9       30.16R
OKLAHOMA CITY  CLOUDY    26  23  88 N16       30.17R WCI  14
ALBUQUERQUE NM MOCLDY    38  18  44 N12       30.05R
SALT LAKE CITY FAIR      22  10  60 W3        30.14S
LOS ANGELES CA FAIR      54  29  38 W18       30.11S
BOISE ID       FAIR      24   2  38 SE8       30.14S WCI  15
SEATTLE WA     MOCLDY    34  24  67 N13       30.20R WCI  25
$$

*** WEATHER ACROSS MANITOBA...SASKATCHEWAN AND ONTARIO ***
                ***ONTARIO***

CITY           SKY/WX    TMP DP  RH WIND       PRES   REMARKS
GERALDTON      NOT AVBL
THUNDER BAY    NOT AVBL
SIOUX LOOKOUT  NOT AVBL
TORONTO        NOT AVBL
BIG TROUT LK   NOT AVBL
PICKLE LAKE    NOT AVBL
DRYDEN         NOT AVBL
KENORA         NOT AVBL
$$
                *** MANITOBA***

CITY           SKY/WX    TMP DP  RH WIND       PRES   REMARKS
BRANDON        NOT AVBL
DAUPHIN        NOT AVBL
ISLAND LAKE    NOT AVBL
PILOT MOUND    NOT AVBL
THE PAS        NOT AVBL
THOMPSON       NOT AVBL
WINNIPEG       NOT AVBL
$$
                ***SASKATCHEWAN***

CITY           SKY/WX    TMP DP  RH WIND       PRES   REMARKS
ESTEVAN        NOT AVBL
KINDERSLEY     NOT AVBL
LLOYDMINSTER   NOT AVBL
PRINCE ALBERT  NOT AVBL
REGINA         NOT AVBL
YORKTON        NOT AVBL
N. BATTLEFORD  NOT AVBL
LA RONGE       NOT AVBL
SASKATOON      NOT AVBL
SWIFT CURRENT  NOT AVBL
$$
NOTE: THESE ARE AUTOMATED STATIONS WITH LIMITED QUALITY CONTROL
      "FAIR" INDICATES FEW OR NO CLOUDS BELOW 12,000 FEET WITH NO
      SIGNIFICANT WEATHER AND/OR OBSTRUCTIONS TO VISIBILITY.
      SKY/WX - SKY CONDITION AND SIGNIFICANT WEATHER.
      TMP - AIR TEMPERATURE.    DP   - DEWPOINT TEMPERATURE.
      RH  - RELATIVE HUMIDITY.  PRES - PRESSURE.
      HX  - HEAT INDEX.         WCI  - WIND CHILL INDEX.
$




USA.gov is the U.S. government's official web portal to all federal, state and local government web resources and services.